Location: Praha
(50.0830°N, 14.4670°E)
Time: 00:42:30
(UTC+01:00)

ISS - Pass Details

Date: 23 November 2020
Orbit: 418 x 420 km, 51.6° (Epoch: 05 December)

Event Time Altitude Azimuth Distance (km) Brightness Sun altitude
Rises 18:55:02 0° 251° (WSW) 2,358 1.2 -26.1°
Reaches altitude 10° 18:57:07 10° 251° (WSW) 1,496 -0.1 -26.5°
Enters shadow 18:58:36 24° 250° (WSW) 909 -1.5 -26.7°
